User: anonymous   Login
Location: Ellerstadt
(49.4644°N, 8.2615°E)
Time: 18:36:38
(UTC+00:00)
Language:

SPOT 3 Rocket - Orbit

View from above orbital plane
View from above orbital plane
View from above satellite
View from above satellite

Ground track
Ground track

The orbit data is extracted from the following two-line orbital elements,

1 22830U 93061H   21213.11631900 -.00000012  00000-0  12555-4 0  9990
2 22830  98.7105 270.8137 0010679 194.8434 165.2436 14.31486962453688
Epoch (UTC): 01 August 2021 02:47:29
Eccentricity: 0.0010679
inclination: 98.7105°
perigee height: 779 km
apogee height: 794 km
right ascension of ascending node: 270.8137°
argument of perigee: 194.8434°
revolutions per day: 14.31486962
mean anomaly at epoch: 165.2436°
orbit number at epoch: 45368

The dashed part of the orbit path shows where the satellite is in the earth's shadow,  

DLR